x

Pensacola - 115nm Ese Of Pensacola, Fl (42039) Wave Buoy

11:50am - Sun 29th Mar 2015 All times are CDT. -5 hours from GMT.

  • Sig Wave height 3.3ft
  • Swell Direction
  • Peak Period 5s
  • Average Period 4s
  • Wind
    11mph, 16mph gusts
  • Sea Temp 75°f
  • Air Temp 63°f
  • Sea Pressure 1028.5mb
  • Pensacola - 115nm Ese Of Pensacola, Fl
  • Pensacola - 115nm Ese Of Pensacola, Fl

More Historic Weather Station data

Upgrade to MSW Pro to gain access to the past 30 days of data for over 8000 Wavebouys and Weather Stations around the globe.

Join Pro

Comparision Forecast

View Surf forecast
   
Sun 03/29 11:50am 3.5ft 5s 4s 11 16 mph 1028.5mb 75f 63f
10:50am 3ft 5s 4s 11 16 mph 1028.5mb 75f 63f
9:50am 2.5ft 5s 4s 11 16 mph 1028.6mb 75f 62f
8:50am 2.5ft 4s 4s 13 16 mph 1028.2mb 75f 62f
7:50am 2ft 4s 4s 11 16 mph 1027.4mb 75f 62f
6:50am 2ft 4s 4s 11 16 mph 1026.7mb 75f 62f
5:50am 1.6ft 3s 3s 13 18 mph 1025.9mb 75f 62f
4:50am 1.3ft 6s 3s 13 18 mph 1025.1mb 75f 62f
3:50am 1.3ft 4s 4s 9 16 mph 1025mb 75f 63f
2:50am 1.3ft 6s 4s 7 11 mph 1024.8mb 75f 62f
1:50am 1.3ft 4s 4s 7 11 mph 1025mb 75f 63f
12:50am 1.3ft 4s 4s 7 11 mph 1025.1mb 75f 62f
Sat 03/28 11:50pm 1.6ft 4s 4s 7 11 mph 1025.4mb 75f 62f
10:50pm 1.6ft 6s 4s 7 11 mph 1025.6mb 75f 61f
9:50pm 2ft 4s 4s 4 7 mph 1025.1mb 75f 61f
8:50pm 2ft 5s 4s 7 11 mph 1024.5mb 75f 60f
7:50pm 2ft 4s 4s 9 13 mph 1023.8mb 75f 60f
6:50pm 2.5ft 5s 4s 13 18 mph 1023.4mb 75f 60f
5:50pm 2.5ft 5s 4s 11 18 mph 1023.2mb 75f 60f
4:50pm 2.5ft 5s 4s 11 16 mph 1022.6mb 76f 60f
3:50pm 2.5ft 5s 4s 11 16 mph 1022.4mb 75f 59f
2:50pm 3ft 5s 4s 11 16 mph 1022.7mb 75f 59f
1:50pm 3.5ft 5s 4s 11 18 mph 1023.5mb 75f 58f
12:50pm 3.5ft 5s 4s 11 16 mph 1023.5mb 75f 58f
11:50am 4ft 6s 5s 13 18 mph 1024.5mb 75f 58f
10:50am 4ft 6s 5s 16 20 mph 1024.9mb 75f 59f
9:50am 5ft 6s 5s 11 16 mph 1024.5mb 74f 59f
8:50am 5ft 6s 5s 18 22 mph 1023.1mb 74f 60f
7:50am 5ft 7s 5s 20 22 mph 1022.2mb 74f 60f
6:50am 5.5ft 6s 5s 18 25 mph 1021.5mb 74f 61f
5:50am 5.5ft 6s 5s 20 25 mph 1020.4mb 74f 61f
4:50am 6ft 7s 5s 20 27 mph 1019.7mb 74f 61f
3:50am 5.5ft 7s 5s 20 25 mph 1019.2mb 74f 62f
2:50am 5ft 7s 5s 22 27 mph 1019.1mb 74f 62f
1:50am 6ft 6s 5s 20 27 mph 1019.1mb 74f 64f
12:50am 6ft 7s 5s 18 22 mph 1019.2mb 74f 64f
Fri 03/27 11:50pm 6ft 7s 5s 25 29 mph 1018.4mb 74f 66f
10:50pm 6ft 7s 5s 22 31 mph 1017.9mb 74f 67f
9:50pm 6ft 7s 5s 25 29 mph 1017.6mb 75f 67f
8:50pm 6ft 7s 5s 25 29 mph 1016.2mb 75f 67f
7:50pm 6ft 7s 5s 20 27 mph 1015.3mb 75f 66f
6:50pm 6ft 7s 5s 22 27 mph 1014.4mb 75f 65f
5:50pm 7ft 7s 5s 25 31 mph 1013.9mb 76f 64f
4:50pm 6.5ft 7s 5s 27 31 mph 1013mb 76f 63f
3:50pm 7ft 7s 5s 27 31 mph 1012.4mb 76f 64f
2:50pm 6ft 6s 5s 25 29 mph 1012.8mb 76f 63f
1:50pm 6ft 6s 4s 27 34 mph 1012.8mb 76f 64f
12:50pm 5ft 6s 4s 27 34 mph 1012.9mb 76f 65f
11:50am 5ft 6s 4s 25 29 mph 1012.8mb 76f 67f
10:50am 5ft 6s 4s 25 29 mph 1012.4mb 76f 68f
9:50am 5ft 6s 5s 20 25 mph 1011.5mb 76f 70f
8:50am 5ft 6s 5s 20 22 mph 1011.3mb 76f 72f
7:50am 5ft 6s 5s 13 16 mph 1010.8mb 76f 72f
6:50am 5ft 5s 4s 20 22 mph 1010.6mb 76f 72f
5:50am 4.5ft 5s 4s 25 29 mph 1010.1mb 76f 72f
4:50am 5ft 5s 4s 25 31 mph 1010mb 76f 73f
3:50am 4.5ft 4s 4s 25 29 mph 1009.5mb 75f 74f
2:50am 3.5ft 4s 4s 22 27 mph 1009.6mb 75f 74f
1:50am 3.5ft 4s 4s 20 25 mph 1010.7mb 75f 73f
12:50am 3.5ft 7s 4s 20 25 mph 1010.5mb 75f 73f
Thu 03/26 11:50pm 3.5ft 5s 4s 20 25 mph 1009.6mb 75f 73f
10:50pm 3.5ft 7s 4s 25 29 mph 1009mb 75f 72f
9:50pm 3.5ft 5s 4s 16 18 mph 1012.9mb 75f 70f
8:50pm 2.5ft 5s 5s 16 18 mph 1012.9mb 75f 70f
7:50pm 2.5ft 6s 5s 11 13 mph 1013.1mb 75f 70f
6:50pm 3ft 5s 5s 2 4 mph 1012.9mb 75f 69f
5:50pm 2.5ft 5s 4s 9 11 mph 1011.7mb 76f 69f
4:50pm 2.5ft 6s 4s 2 4 mph 1012.7mb 76f 69f
3:50pm 3ft 6s 4s 7 9 mph 1012.7mb 76f 69f
2:50pm 3.5ft 6s 4s 16 20 mph 1012.4mb 76f 68f
1:50pm 4.5ft 6s 4s 20 22 mph 1013.9mb 76f 67f
12:50pm 3.5ft 6s 5s 20 27 mph 1014.2mb 76f 68f
11:50am 3.5ft 5s 5s 11 16 mph 1014.7mb 76f 69f
10:50am 3.5ft 6s 4s 13 18 mph 1014.2mb 76f 67f
9:50am 4ft 6s 4s 29 34 mph 1014mb 76f 71f
8:50am 4ft 5s 4s 18 20 mph 1013.5mb 76f 76f
7:50am 3.5ft 5s 4s 22 25 mph 1013.4mb 76f 75f
6:50am 3.5ft 5s 4s 16 18 mph 1014.1mb 76f 75f
5:50am 3.5ft 5s 4s 16 18 mph 1014.1mb 76f 75f
4:50am 4ft 5s 4s 18 20 mph 1013.9mb 76f 75f
3:50am 3.5ft 4s 4s 16 18 mph 1014.3mb 75f 75f
2:50am 3ft 5s 4s 18 20 mph 1014.7mb 75f 74f
1:50am 3ft 4s 4s 18 20 mph 1015.8mb 75f 74f
12:50am 3ft 4s 4s 18 20 mph 1016.5mb 75f 73f
Wed 03/25 11:50pm 2.5ft 4s 4s 18 20 mph 1017.1mb 75f 74f
10:50pm 2.5ft 4s 4s 18 20 mph 1017.5mb 75f 73f
9:50pm 2.5ft 4s 4s 18 22 mph 1017.6mb 75f 73f
8:50pm 2ft 4s 3s 18 20 mph 1017.6mb 76f 73f
7:50pm 2ft 4s 3s 16 18 mph 1017.6mb 75f 73f
6:50pm 2ft 4s 3s 16 18 mph 1017.4mb 75f 73f